CYYQ

Churchill Airport

Airport
ICAO code
CYYQ
Summary
ICAO Region
NAM
ICAO Territory
Location

Churchill, Manitoba,

Coordinates
58° 44' 17" N , 94° 4' 14" W
KCC
Airport BS
Non Avian Wildlife Hazards to Aircraft
Airport CFIT
Altimeter Temperature Error Correction
Airport GND
Aircraft Ground De/Anti Icing
Airport WX
Fog
Metar
Observation
CYYQ 031800Z 26006KT 15SM BKN250 M30/M35 A3009 RMK CI6 SLP198
Station
Churchill, Man.
Date/Time
2023-02-03 19:00:00
Wind direction
260°
Wind speed
06 kts
Lowest cloud amount
broken clouds
Temperature
-30°C
Dew point
-35°C
Humidity
61%
Weather condition
n/a

Description

Airport serving Churchill, Manitoba.

Climatology

Subarctic climate (Köppen climate classification Dfc) - long, usually very cold winters, and short, cool to mild summers.

Note

Diversion airfield for commercial aircraft on Polar and NAT routes

Runways

Designator Length Width Surface Rops
7/25 1219 30 GVL No/No
15/33 2804 49 ASP No/No

Airport map

Aerial View

SKYbrary Partners:

Safety knowledge contributed by: